(294080) = 1998 FG73 = 2007 TT187

Discovered at Socorro on 2007-10-14 by LINEAR.

Orbit

Orbit type: Hungaria

Note: WebGL enabled browser required.

epoch2022-01-21.0
epoch JD2459600.5
perihelion date2020-04-05.15671
perihelion JD2458944.65671
argument of perihelion (°)23.10424
ascending node (°)188.14403
inclination (°)21.68474
eccentricity0.0427391
perihelion distance (AU)1.8689627
Tisserand w.r.t. Jupiter3.8
ΔV w.r.t. Earth (km/sec)11.1
semimajor axis (AU)1.9524067
mean anomaly (°)236.94552
mean daily motion (°/day)0.36128370
aphelion distance (AU)2.036
period (years)2.73
P-vector [x]-0.85886156
P-vector [y]-0.50839483
P-vector [z]-0.06238207
Q-vector [x]0.50952619
Q-vector [y]-0.86045116
Q-vector [z]-0.00262143
absolute magnitude17.59
phase slope0.15
uncertainty0
referenceMPO 697038
observations used421
oppositions12
arc length (days)8655
first opposition used1998
last opposition used2021
residual rms (arc-secs)0.74
perturbers coarse indicatorM-v
perturbers precise indicator003Ek
first observation date used1998-03-29.0
last observation date used2021-12-08.0
computer namePan
JD of orbit computation2455941.250017
perihelion JD uncertainty (days)4.0894E-04
argument of perihelion uncertainty (°)1.4848E-04
ascending node uncertainty (°)2.7256E-05
inclination uncertainty (°)2.9591E-05
eccentricity uncertainty 2.3445E-07
perihelion distance uncertainty (AU)4.5526E-07
Minimum Orbit Intersection Distances (in AU)
for orbit epoch: 2459200.5, reference: E2021-B55
Mercury1.43639
Venus1.15033
Earth0.87404
Mars0.23794
Jupiter2.91958
Saturn7.208
Uranus16.4671
Neptune27.8571

Observations

431 total observations over interval: 1998 03 29.19059 – 2021 12 08.07839
These data are available for download (format description).

Date (UT) J2000 RA J2000 Dec Magn Location Ref
1998 03 29.19059 11 53 02.75 -02 58 48.1 19.4   704 – Lincoln Laboratory ETS, New Mexico MPS 796
1998 03 29.21068 11 53 01.88 -02 58 18.1 19.4   704 – Lincoln Laboratory ETS, New Mexico MPS 796
1998 03 29.23084 11 53 01.00 -02 57 47.7 19.7   704 – Lincoln Laboratory ETS, New Mexico MPS 796
1998 03 29.25112 11 52 59.86 -02 57 16.6 19.4   704 – Lincoln Laboratory ETS, New Mexico MPS 796
1998 03 29.27146 11 52 58.93 -02 56 47.2 19.2   704 – Lincoln Laboratory ETS, New Mexico MPS 796
1998 04 01.14341 11 50 53.84 -01 44 59.9 18.9   704 – Lincoln Laboratory ETS, New Mexico MPS 796
1998 04 01.16349 11 50 52.81 -01 44 30.3 19.3   704 – Lincoln Laboratory ETS, New Mexico MPS 796
1998 04 01.18380 11 50 51.93 -01 44 00.6 19.3   704 – Lincoln Laboratory ETS, New Mexico MPS 796
1998 04 01.20388 11 50 51.06 -01 43 28.8 19.4   704 – Lincoln Laboratory ETS, New Mexico MPS 796
1998 04 01.22406 11 50 50.01 -01 43 01.5 18.8   704 – Lincoln Laboratory ETS, New Mexico MPS 796
2006 02 24.18402 08 48 02.49 -11 57 21.1 20.1 R 644 – Palomar Mountain/NEAT MPS 229080
2006 02 24.20474 08 48 01.59 -11 56 55.7 19.2 R 644 – Palomar Mountain/NEAT MPS 229080
2006 02 24.22562 08 48 00.62 -11 56 30.9 19.6 R 644 – Palomar Mountain/NEAT MPS 229080
2007 09 20.34237 23 59 40.13 +07 07 12.2 20.0 V 691 – Steward Observatory, Kitt Peak-Spacewatch MPS 229080
2007 09 20.35996 23 59 39.16 +07 06 49.6 19.7 V 691 – Steward Observatory, Kitt Peak-Spacewatch MPS 229080
2007 09 20.37755 23 59 38.19 +07 06 27.1 19.3 V 691 – Steward Observatory, Kitt Peak-Spacewatch MPS 229080
2007 09 22.28532 23 57 58.99 +06 25 43.7   704 – Lincoln Laboratory ETS, New Mexico MPS 407573
2007 09 22.29749 23 57 58.30 +06 25 28.0   704 – Lincoln Laboratory ETS, New Mexico MPS 407573
2007 09 22.32177 23 57 56.91 +06 24 56.6   704 – Lincoln Laboratory ETS, New Mexico MPS 407573
2007 09 22.33385 23 57 56.30 +06 24 40.8   704 – Lincoln Laboratory ETS, New Mexico MPS 407573
2007 10 07.19838 23 45 50.65 +01 04 28.8 19.3 V 703 – Catalina Sky Survey MPS 229081
2007 10 07.20531 23 45 50.36 +01 04 20.7 19.0 V 703 – Catalina Sky Survey MPS 229081
2007 10 07.21229 23 45 50.07 +01 04 10.6 19.5 V 703 – Catalina Sky Survey MPS 229081
2007 10 07.21925 23 45 49.60 +01 04 02.6 19.2 V 703 – Catalina Sky Survey MPS 229081
2007 10 14.20848 23 41 26.72 -01 15 02.3 20.1   704 – Lincoln Laboratory ETS, New Mexico MPS 222631
2007 10 14.21971 23 41 26.37 -01 15 14.1 20.1   704 – Lincoln Laboratory ETS, New Mexico MPS 222631
2007 10 14.23078 23 41 25.84 -01 15 27.0 20.3   704 – Lincoln Laboratory ETS, New Mexico MPS 222631
2007 10 14.24184 23 41 25.46 -01 15 38.8 20.2   704 – Lincoln Laboratory ETS, New Mexico MPS 222631
2007 10 18.13803 23 39 32.95 -02 26 35.5 19.6   704 – Lincoln Laboratory ETS, New Mexico MPS 222631
2007 10 18.14977 23 39 32.71 -02 26 46.1 19.5   704 – Lincoln Laboratory ETS, New Mexico MPS 222631
2007 10 18.16151 23 39 32.26 -02 27 00.6 20.1   704 – Lincoln Laboratory ETS, New Mexico MPS 222631
2007 10 18.17329 23 39 32.05 -02 27 12.2 20.0   704 – Lincoln Laboratory ETS, New Mexico MPS 222631
2007 10 18.18502 23 39 31.62 -02 27 23.9 19.9   704 – Lincoln Laboratory ETS, New Mexico MPS 222631
2009 03 15.45886 13 42 50.26 -08 40 25.4 19.9 V 691 – Steward Observatory, Kitt Peak-Spacewatch MPS 280220
2009 03 15.47697 13 42 49.91 -08 40 02.9 19.9 V 691 – Steward Observatory, Kitt Peak-Spacewatch MPS 280220
2009 03 15.49509 13 42 49.58 -08 39 40.1 20.3 V 691 – Steward Observatory, Kitt Peak-Spacewatch MPS 280220
2009 04 15.25864 13 23 24.30 +03 33 23.0 18.9   704 – Lincoln Laboratory ETS, New Mexico MPS 283765
2009 04 15.26961 13 23 23.70 +03 33 38.1 19.3   704 – Lincoln Laboratory ETS, New Mexico MPS 283765
2009 04 15.29159 13 23 22.61 +03 34 09.2 18.9   704 – Lincoln Laboratory ETS, New Mexico MPS 283765
2009 04 20.32265 13 19 25.86 +05 27 19.0 19.4 V 703 – Catalina Sky Survey MPS 284454
2009 04 20.33206 13 19 25.28 +05 27 31.8 19.4 V 703 – Catalina Sky Survey MPS 284454
2009 04 20.34149 13 19 24.92 +05 27 44.5 19.2 V 703 – Catalina Sky Survey MPS 284454
2009 04 20.35082 13 19 24.42 +05 27 55.2 19.2 V 703 – Catalina Sky Survey MPS 284454
2009 04 24.81213 13 16 10.67 +06 59 33.2 19.1 V A50 – Andrushivka Astronomical Observatory MPS 286441
2009 04 24.81372 13 16 10.64 +06 59 34.2 19.1 V A50 – Andrushivka Astronomical Observatory MPS 286441
2009 04 24.81529 13 16 10.52 +06 59 36.1 19.2 V A50 – Andrushivka Astronomical Observatory MPS 286441
2009 04 24.85312 13 16 08.91 +07 00 20.3 19.3 V A50 – Andrushivka Astronomical Observatory MPS 286441
2009 04 28.21685 13 13 57.14 +08 03 07.3 19.2 V 703 – Catalina Sky Survey MPS 285717
2009 04 28.22348 13 13 56.96 +08 03 13.1 19.2 V 703 – Catalina Sky Survey MPS 285717
2009 04 28.23005 13 13 56.56 +08 03 21.0 19.4 V 703 – Catalina Sky Survey MPS 285717
2009 04 28.23663 13 13 56.31 +08 03 28.4 19.5 V 703 – Catalina Sky Survey MPS 285717
2010 10 31.523764 03 37 03.049 -06 07 43.60 20.15 r F51 – Pan-STARRS 1, Haleakala MPS 365692
2010 10 31.535486 03 37 02.364 -06 07 56.21 20.14 r F51 – Pan-STARRS 1, Haleakala MPS 365692
2010 11 08.33986 03 29 24.12 -08 19 12.7 19.5   704 – Lincoln Laboratory ETS, New Mexico MPS 355470
2010 11 08.35295 03 29 23.40 -08 19 23.8 20.5   704 – Lincoln Laboratory ETS, New Mexico MPS 355470
2010 11 08.36605 03 29 22.48 -08 19 36.4 19.7   704 – Lincoln Laboratory ETS, New Mexico MPS 355470
2010 11 08.37932 03 29 21.62 -08 19 48.6 20.1   704 – Lincoln Laboratory ETS, New Mexico MPS 355470
2010 11 08.39239 03 29 20.79 -08 20 01.0 19.9   704 – Lincoln Laboratory ETS, New Mexico MPS 355470
2012 06 17.92832 17 39 41.26 +18 52 24.4 18.7 R 106 – Crni Vrh MPS 427779
2012 06 17.94151 17 39 40.41 +18 52 26.1 19.5 R 106 – Crni Vrh MPS 427779
2012 06 17.95468 17 39 39.60 +18 52 28.8 18.7 R 106 – Crni Vrh MPS 427779
2012 06 17.96618 17 39 38.83 +18 52 30.3 19.1 R 461 – University of Szeged, Piszkesteto Stn. (Konkol MPS 427779
2012 06 17.96785 17 39 38.75 +18 52 30.1 19.8 R 106 – Crni Vrh MPS 427779
2012 06 17.97670 17 39 38.16 +18 52 31.6 19.0 R 461 – University of Szeged, Piszkesteto Stn. (Konkol MPS 427779
2012 06 17.98725 17 39 37.48 +18 52 33.0 19.2 R 461 – University of Szeged, Piszkesteto Stn. (Konkol MPS 427779
2014 01 10.31443 06 27 33.44 -16 52 28.3 19.9 G G45 – Space Surveillance Telescope, Atom Site MPS 1609081
2014 01 10.33273 06 27 32.25 -16 52 21.3 20.5 G G45 – Space Surveillance Telescope, Atom Site MPS 1609081
2014 01 10.35054 06 27 31.01 -16 52 15.3 19.9 G G45 – Space Surveillance Telescope, Atom Site MPS 1609082
2014 01 10.36864 06 27 29.84 -16 52 07.8 20.6 G G45 – Space Surveillance Telescope, Atom Site MPS 1609082
2014 01 10.38285 06 27 28.85 -16 52 03.0 20.1 G G45 – Space Surveillance Telescope, Atom Site MPS 1609082
2015 06 04.55601 21 39 11.199 +14 30 28.31 20.6 i F51 – Pan-STARRS 1, Haleakala MPS 611367
2015 06 04.56744 21 39 11.749 +14 30 36.50 20.6 i F51 – Pan-STARRS 1, Haleakala MPS 611367
2015 06 04.57905 21 39 12.290 +14 30 44.45 20.7 i F51 – Pan-STARRS 1, Haleakala MPS 611367
2015 09 08.53816 21 08 10.25 +08 39 10.0 18.6 R D29 – Purple Mountain Observatory, XuYi Station MPS 626406
2015 09 08.55051 21 08 09.92 +08 38 55.3 19.6 R D29 – Purple Mountain Observatory, XuYi Station MPS 626406
2015 09 08.56286 21 08 09.55 +08 38 40.0 19.6 R D29 – Purple Mountain Observatory, XuYi Station MPS 626406
2015 09 10.52645 21 07 18.55 +07 57 05.1 20.1 R D29 – Purple Mountain Observatory, XuYi Station MPS 626406
2015 09 10.54056 21 07 18.17 +07 56 47.4 19.7 R D29 – Purple Mountain Observatory, XuYi Station MPS 626406
2015 09 10.55467 21 07 17.78 +07 56 29.2 20.2 R D29 – Purple Mountain Observatory, XuYi Station MPS 626406
2015 09 15.17481 21 05 47.68 +06 18 53.8 20.2 r G45 – Space Surveillance Telescope, Atom Site MPS 631537
2015 09 15.18033 21 05 47.58 +06 18 47.2 19.8 r G45 – Space Surveillance Telescope, Atom Site MPS 631537
2015 09 15.18539 21 05 47.50 +06 18 40.9 20.1 r G45 – Space Surveillance Telescope, Atom Site MPS 631537
2015 09 15.19064 21 05 47.39 +06 18 34.5 20.1 r G45 – Space Surveillance Telescope, Atom Site MPS 631537
2015 09 15.19573 21 05 47.29 +06 18 27.9 20.2 r G45 – Space Surveillance Telescope, Atom Site MPS 631537
